sat.trackr.live / text

‹ back to catalog

TELKOM 3S

NORAD 41944 · 2017-007A

PAYLOAD ACTIVE UNKNOWN

§ Identity

Operator
Country
INDO
Launch date
2017-02-14
Launch site
FRGUI
Launch vehicle
Mass (kg)
RCS (m²)
10.87

Purposes: comms

External: N2YO · Heavens-Above · Gunter

§ Orbital elements

Epoch: 2026-05-25T00:52:58.561824Z

Period
1,436.10 min
Inclination
0.0182°
Eccentricity
0.0002330
Mean motion
1.00271715 rev/d
Perigee alt
35,776.8 km
Apogee alt
35,796.4 km
Semi-major
42,164.8 km
B*
0.0000e+0
RAAN
283.3715°
Arg perigee
141.3852°
Mean anomaly
309.1241°
Rev number
3,390

§ Raw data

TELKOM 3S1 41944U 17007A   26145.03678891 -.00000365  00000+0  00000+0 0  99902 41944   0.0182 283.3715 0002330 141.3852 309.1241  1.00271715 33905

JSON: /api/v1/satellites/41944 · /tle

For live sub-satellite position, see the globe view (requires WebGL).

§ Visibility from observer

Set your observer location to see the next 7 days of passes ≥ 10°. The values pass through the URL so the page stays shareable.

No JS? Fill the form by hand. The geolocation button needs JavaScript.